User: anonymous   Login
Location: Unspecified
(0.0000°N, 0.0000°E)
Time: 04:46:28
(UTC+00:00)
Language:

ESSA 7 - Orbit

View from above orbital plane
View from above orbital plane
View from above satellite
View from above satellite

Ground track
Ground track

The orbit data is extracted from the following two-line orbital elements,

1  3345U 68069A   18020.53687433 -.00000050 +00000-0 -40200-4 0  9991
2  3345 101.4722 061.3561 0026854 047.1420 127.5276 12.52972283260525
Epoch (UTC): 20 January 2018 12:53:05
Eccentricity: 0.0026854
inclination: 101.4722°
perigee height: 1431 km
apogee height: 1473 km
right ascension of ascending node: 61.3561°
argument of perigee: 47.1420°
revolutions per day: 12.52972283
mean anomaly at epoch: 127.5276°
orbit number at epoch: 26052

The dashed part of the orbit path shows where the satellite is in the earth's shadow,  

DLR